User: anonymous   Login
Location: Albany
(35.0000°S, 118.0000°E)
Time: 08:27:41
(UTC-04:00)
Language:

ERS-1 Rocket - Orbit

View from above orbital plane
View from above orbital plane
View from above satellite
View from above satellite

Ground track
Ground track

The orbit data is extracted from the following two-line orbital elements,

1 21610U 91050F   17206.22748209 +.00000012 +00000-0 +17905-4 0  9994
2 21610 098.6020 263.0142 0003319 168.0291 232.6467 14.40801675365312
Epoch (UTC): 25 July 2017 05:27:34
Eccentricity: 0.0003319
inclination: 98.6020°
perigee height: 753 km
apogee height: 758 km
right ascension of ascending node: 263.0142°
argument of perigee: 168.0291°
revolutions per day: 14.40801675
mean anomaly at epoch: 232.6467°
orbit number at epoch: 36531

The dashed part of the orbit path shows where the satellite is in the earth's shadow,  

DLR